Regional Weather Roundup
Issued by NWS

Home | Current Version | Previous Version | Graphics & Text | Print | Product List | Glossary On
Versions: 1 2 3 4 5 6 7 8 9 10 11 12 13 14 15 16 17 18 19 20 21 22 23 24 25 26 27 28 29 30 31 32 33 34 35 36 37 38 39 40 41 42 43 44 45 46 47 48 49 50
000
ASUS43 KLOT 172304
RWRIL

ILLINOIS REGIONAL WEATHER ROUNDUP
NATIONAL WEATHER SERVICE CHICAGO/ROMEOVILLE IL
600 PM CDT TUE OCT 17 2017

NOTE: "FAIR" INDICATES FEW OR NO CLOUDS BELOW 12,000 FEET WITH NO
SIGNIFICANT WEATHER AND/OR OBSTRUCTIONS TO VISIBILITY.

* THESE STATIONS ARE NOT UNDER NWS QUALITY CONTROL. THEY ALSO MAY NOT
  REPORT WEATHER SUCH AS PRECIPITATION OR FOG.

ILZ001-002-007-009-015-016-024-180000-
NORTHWEST ILLINOIS

CITY           SKY/WX    TMP DP  RH WIND       PRES   REMARKS
MOLINE         CLEAR     66  42  41 SW6       30.09S
STERLING*      CLEAR     66  42  41 CALM        N/A
SAVANNA*       CLEAR     66  43  44 S10       30.09R
$$

ILZ003-004-008-010-011-017-018-180000-
NORTH CENTRAL ILLINOIS

CITY           SKY/WX    TMP DP  RH WIND       PRES   REMARKS
ROCKFORD       PTCLDY    67  39  35 SW9       30.10F
FREEPORT*      CLEAR     63  40  41 SW8       30.11S
ROCHELLE*      CLEAR     64  42  43 S6        30.12S
DE KALB*       CLEAR     62  43  49 S10       30.12S
PERU*          CLEAR     64  40  42 SW10      30.14R
$$

ILZ005-006-012>014-019>023-180000-
NORTHEAST ILLINOIS

CITY           SKY/WX    TMP DP  RH WIND       PRES   REMARKS
CHICAGO-OHARE  PTCLDY    67  40  37 SW8       30.11S
CHICAGO-MIDWAY PTCLDY    67  41  38 SW12      30.12F
AURORA         CLEAR     64  43  46 SW5       30.13S
LANSING*       CLEAR     64  44  47 SW10      30.15S
JOLIET*        CLEAR     66  42  41 S5        30.14S
WAUKEGAN       CLEAR     64  44  48 SW13      30.08S
DUPAGE AIRPORT CLEAR     63  42  46 SW9       30.11F
KANKAKEE*      CLEAR     65  39  38 SW7       30.17S
WHEELING       CLEAR     67  40  37 SW10G20   30.11F
MORRIS*        CLEAR     64  40  40 NW7       30.13R
NORTHERLY ISL    N/A     68  36  30 S13         N/A
$$

LMZ740>746-180000-
SOUTHERN LAKE MICHIGAN

STATION/POSITION SKY/WX   TEMP    WIND        PRES    VSBY  WAVE
                          AIR SEA DIR/SP/G                  HT/PER
                          (F)     (DEG/KT/KT) (MB)    (MI)  (FT/S)
SOUTHERN BUOY              63 62  220/ 14/ 17 1018.9          4/ 6
WILMETTE HARBOR            65 58  220/ 12/ 17   N/A           2/ 3
HARRISON CRIB              69     210/ 18/ 20   N/A
BURNHAM HARBOR             68     190/  9/ 15   N/A
CALUMET HARBOR             68     210/  6/ 10 1019.5S
BURNS HARBOR               67     220/ 13/ 17 1020.7F
MICHIGAN CITY              66     190/ 11/ 13   N/A
MICHIGAN CITY 6N           63 58  210/ 12/ 14   N/A           2/ 3
ST. JOSEPH                 62 58  220/ 10/ 12 1020.6R         2/ 4
$$

ILZ025>027-034>036-040-047-049-050-058-095>099-180000-
WEST-CENTRAL ILLINOIS

CITY           SKY/WX    TMP DP  RH WIND       PRES   REMARKS
QUINCY         CLEAR     65  42  43 S9        30.13S
GALESBURG*     CLEAR     65  42  42 S8        30.13S
MACOMB*        CLEAR     65  40  38 S8        30.15R
JACKSONVILLE*  CLEAR     64  41  42 S8        30.16S
PITTSFIELD*    CLEAR     65  43  43 S6        30.16S
$$

ILZ028>032-037-038-041>044-048-051>054-059>061-180000-
CENTRAL ILLINOIS

CITY           SKY/WX    TMP DP  RH WIND       PRES   REMARKS
PONTIAC        CLEAR     65  40  39 S9        30.16S
BLOOMINGTON    CLEAR     61  41  47 SW9       30.18R
DECATUR        CLEAR     62  40  44 S9        30.19S
PEORIA         CLEAR     64  41  42 S10       30.15R
LACON*         CLEAR     64  41  42 S5        30.13R
LINCOLN*       CLEAR     65  41  41 S3        30.17S
SPRINGFIELD    CLEAR     65  40  39 S10       30.17S
TAYLORVILLE    CLEAR     62  39  42 S6        30.19S
$$

ILZ033-039-045-046-055>057-062-063-180000-
EAST-CENTRAL ILLINOIS

CITY           SKY/WX    TMP DP  RH WIND       PRES   REMARKS
CHAMPAIGN      CLEAR     63  39  41 S6        30.20S
DANVILLE*      CLEAR     61  39  43 SW12      30.18S
RANTOUL*       CLEAR     63  42  46 S6        30.19S
MATTOON        CLEAR     62  42  47 S6        30.20S
PARIS*         CLEAR     60  41  49 S7        30.22S
$$

ILZ079-100>102-180000-
SOUTHWEST ILLINOIS

CITY           SKY/WX    TMP DP  RH WIND       PRES   REMARKS
BELLEVILLE     CLEAR     63  40  43 SE7         N/A
CAHOKIA*       CLEAR     67  35  30 S5        30.19S
SPARTA*        CLEAR     64  39  40 S7        30.22S
$$

ILZ064>066-069>071-074>076-080>082-084>086-088>090-092>094-180000-
SOUTH-CENTRAL ILLINOIS

CITY           SKY/WX    TMP DP  RH WIND       PRES   REMARKS
CARBONDALE     PTCLDY    63  43  48 S3        30.22F
EFFINGHAM*     CLEAR     63  41  44 SE3       30.22F
MARION         PTCLDY    63  45  51 S12       30.24
MT. VERNON     CLEAR     60  45  57 S5        30.22F
CENTRALIA*     CLEAR     64  42  45 S7        30.21S
SALEM*         CLEAR     66  39  37 S7        30.21S
METROPOLIS*    CLEAR     64  46  51 CALM      30.24F
$$

ILZ067-068-072-073-078-083-087-091-180000-
SOUTHEAST ILLINOIS

CITY           SKY/WX    TMP DP  RH WIND       PRES   REMARKS
LAWRENCEVILLE  CLEAR     60  45  57 S7        30.24S
FLORA*         CLEAR     63  43  48 S6        30.22F
FAIRFIELD*     CLEAR     63  39  41 S5        30.22S
HARRISBURG*    CLEAR     63  44  50 CALM      30.24S
ROBINSON*      CLEAR     59  40  50 S6        30.24S
CARMI*         PTCLDY    61  42  49 SE7       30.23F
$$

ABBREVIATIONS USED IN REMARKS
   TC - TEMPERATURE IN CELSIUS
  WCI - WIND CHILL INDEX
   HX - HEAT INDEX
  VSB - VISIBILITY
$$





USA.gov is the U.S. government's official web portal to all federal, state and local government web resources and services.